OneWeb SL0603

operational
NORAD ID: 54667 Int'l Des: 2022-166 Owner: ONEWEBN Country: UK Constellation: oneweb
LEOCIRCULARPOLARONEWEB_TYPE

About OneWeb SL0603

Description loading...

Live Position

Loading 3D Globe...

Upcoming Passes

Altitude History

Altitude vs Time

uPlot chart will show altitude changes over time

Two-Line Element Set

1 54667U 22166AB 25306.44519057 -.00000039 00000-0 -12587-3 0 9996
2 54667 87.9183 289.1758 0001780 88.9634 271.1704 13.21826361141528
Epoch: Nov 2, 2025 • Age: 16 hours

Current Status

Altitude 1187.8 km
Velocity 7.26 km/s
Sub-Earth Point -25.67°S, 158.17°W
Launch Date Dec 8, 2022
Age 2.9 years
Type internet

Technical Details

Classification Payload
Mass 148.00 kg
Dry Mass 140.00 kg
Total Mass 148.00 kg
Length 1.30 m
Diameter 1.00 m
Span 5.00 m
Shape Trapezoid+2 pan
Manufacturer ONEWUS
Bus Type ARROW
Phase Status In Orbit
Owner/State ONEWEBN/UK

Large Constellations

Loading constellations...